KD4WOZ Weather Reports


time (UTC)temp
C
wind
direction
speed
KPH
gust
KPH
rain 1hr
cm
rain 24hr
cm
rain mn
cm
humidity
%
barometer
mb
20260504050400 13 221 6.4 16.1 0.00 0.00 0.00 68 1016.4
20260504045900 13 213 8.0 16.1 0.00 0.00 0.00 68 1016.3
20260504045400 13 220 6.4 14.5 0.00 0.00 0.00 68 1016.3
20260504044903 13 219 6.4 11.3 0.00 0.00 0.00 67 1016.4
20260504044357 13 248 3.2 12.9 0.00 0.00 0.00 67 1016.4
20260504043854 13 267 4.8 12.9 0.00 0.00 0.00 67 1016.3
20260504042850 13 194 8.0 17.7 0.00 0.00 0.00 69 1016.2
20260504042345 13 208 9.7 16.1 0.00 0.00 0.00 69 1016.3
20260504041842 13 205 8.0 22.5 0.00 0.00 0.00 69 1016.3
20260504041337 13 203 12.9 22.5 0.00 0.00 0.00 68 1016.3
20260504040834 13 169 11.3 19.3 0.00 0.00 0.00 68 1016.3
20260504040334 13 199 11.3 24.1 0.00 0.00 0.00 67 1016.3
20260504035831 13 200 9.7 24.1 0.00 0.00 0.00 66 1016.2
20260504035334 13 215 12.9 22.5 0.00 0.00 0.00 64 1016.3
20260504034833 13 215 11.3 22.5 0.00 0.00 0.00 64 1016.2
20260504034329 13 178 11.3 20.9 0.00 0.00 0.00 64 1016.2
20260504033830 13 173 11.3 20.9 0.00 0.00 0.00 63 1016.2
20260504032829 13 208 11.3 17.7 0.00 0.00 0.00 63 1016.1
20260504031830 13 219 11.3 17.7 0.00 0.00 0.00 62 1016.1
20260504031329 13 175 11.3 17.7 0.00 0.00 0.00 62 1016.1
20260504030830 13 180 8.0 12.9 0.00 0.00 0.00 61 1016.1
20260504030328 13 192 9.7 17.7 0.00 0.00 0.00 61 1016.0
20260504025829 13 186 11.3 17.7 0.00 0.00 0.00 60 1016.0
20260504025330 13 202 9.7 14.5 0.00 0.00 0.00 60 1016.1
20260504024829 13 176 9.7 16.1 0.00 0.00 0.00 61 1016.1
20260504024329 13 194 11.3 19.3 0.00 0.00 0.00 60 1016.1
20260504023829 13 211 9.7 19.3 0.00 0.00 0.00 59 1016.1
20260504023329 13 198 8.0 14.5 0.00 0.00 0.00 62 1016.1
20260504021329 12 252 8.0 12.9 0.00 0.00 0.00 64 1016.1
20260504015830 11 257 6.4 12.9 0.00 0.00 0.00 67 1016.1
20260504015330 10 213 3.2 6.4 0.00 0.00 0.00 65 1016.1
20260504014830 10 234 1.6 4.8 0.00 0.00 0.00 66 1016.1
20260504013829 10 216 3.2 4.8 0.00 0.00 0.00 66 1016.0
20260504013330 10 223 1.6 3.2 0.00 0.00 0.00 66 1016.0
20260504012829 10 277 1.6 3.2 0.00 0.00 0.00 66 1016.0
20260504012328 10 281 1.6 3.2 0.00 0.00 0.00 64 1015.9
20260504011823 11 281 3.2 3.2 0.00 0.00 0.00 64 1015.8
20260504011320 11 286 0.0 3.2 0.00 0.00 0.00 62 1015.7
20260504010816 11 286 1.6 3.2 0.00 0.00 0.00 62 1015.8
20260504010312 11 286 0.0 3.2 0.00 0.00 0.00 60 1015.7
20260504005301 12 286 1.6 3.2 0.00 0.00 0.00 60 1015.7
20260504003801 13 311 0.0 0.0 0.00 0.00 0.00 50 1015.4
20260504003302 13 311 0.0 0.0 0.00 0.00 0.00 49 1015.3
20260504002801 13 311 0.0 1.6 0.00 0.00 0.00 47 1015.3
20260504001800 13 318 0.0 0.0 0.00 0.00 0.00 45 1015.2
20260504001302 14 318 0.0 0.0 0.00 0.00 0.00 44 1015.1
20260504000802 14 318 0.0 0.0 0.00 0.00 0.00 44 1015.1
20260503235804 15 318 0.0 1.6 0.00 0.00 0.00 41 1014.9
20260503235304 15 318 0.0 1.6 0.00 0.00 0.00 41 1014.9
20260503234303 15 74 0.0 1.6 0.00 0.00 0.00 40 1014.8
20260503233801 16 74 0.0 4.8 0.00 0.00 0.00 39 1014.8
20260503233301 16 74 1.6 4.8 0.00 0.00 0.00 39 1014.7
20260503232802 16 38 1.6 4.8 0.00 0.00 0.00 38 1014.7
20260503232257 16 47 1.6 3.2 0.00 0.00 0.00 39 1014.8
20260503231250 16 18 0.0 0.0 0.00 0.00 0.00 38 1014.8
20260503230745 16 18 0.0 3.2 0.00 0.00 0.00 38 1014.7
20260503230241 16 18 0.0 3.2 0.00 0.00 0.00 38 1014.8
20260503225239 16 338 1.6 4.8 0.00 0.00 0.00 38 1014.7
20260503223731 16 333 3.2 9.7 0.00 0.00 0.00 37 1014.7
20260503223230 16 352 6.4 9.7 0.00 0.00 0.00 37 1014.7
20260503222731 16 350 6.4 11.3 0.00 0.00 0.00 37 1014.6
20260503222229 16 336 6.4 14.5 0.00 0.00 0.00 37 1014.7
20260503221729 16 334 9.7 14.5 0.00 0.00 0.00 35 1014.7
20260503221228 16 40 4.8 9.7 0.00 0.00 0.00 36 1014.8
20260503220729 16 317 6.4 19.3 0.00 0.00 0.00 36 1014.7
20260503215730 16 329 11.3 24.1 0.00 0.00 0.00 30 1014.7
20260503215229 16 305 14.5 24.1 0.00 0.00 0.00 30 1014.6
20260503214729 16 309 8.0 20.9 0.00 0.00 0.00 31 1014.6
20260503213729 16 290 4.8 20.9 0.00 0.00 0.00 31 1014.4
20260503213229 16 340 11.3 20.9 0.00 0.00 0.00 31 1014.7
20260503212730 16 306 14.5 17.7 0.00 0.00 0.00 30 1014.7
20260503212229 16 292 6.4 17.7 0.00 0.00 0.00 33 1014.6
20260503211232 16 54 8.0 16.1 0.00 0.00 0.00 36 1014.5
20260503210729 16 32 8.0 16.1 0.00 0.00 0.00 35 1014.5
20260503210229 16 300 11.3 16.1 0.00 0.00 0.00 35 1014.6
20260503205729 16 352 8.0 22.5 0.00 0.00 0.00 35 1014.5
20260503205229 16 318 16.1 27.4 0.00 0.00 0.00 32 1014.5
20260503204728 16 318 19.3 27.4 0.00 0.00 0.00 30 1014.4
20260503204229 16 305 9.7 29.0 0.00 0.00 0.00 30 1014.4
20260503203229 16 327 19.3 30.6 0.00 0.00 0.00 30 1014.5
20260503202729 15 349 8.0 25.7 0.00 0.00 0.00 33 1014.5
20260503201729 15 315 16.1 27.4 0.00 0.00 0.00 30 1014.5
20260503201229 15 291 14.5 29.0 0.00 0.00 0.00 31 1014.7
20260503195729 15 326 16.1 29.0 0.00 0.00 0.00 32 1014.7
20260503194228 15 349 17.7 29.0 0.00 0.00 0.00 32 1014.8
20260503193730 15 307 16.1 29.0 0.00 0.00 0.00 31 1015.1
20260503192730 15 282 14.5 25.7 0.00 0.00 0.00 33 1015.1
20260503192230 15 321 9.7 24.1 0.00 0.00 0.00 33 1015.2
20260503191730 15 320 14.5 32.2 0.00 0.00 0.00 34 1015.3
20260503191230 15 298 22.5 32.2 0.00 0.00 0.00 33 1015.3
20260503190732 15 274 20.9 27.4 0.00 0.00 0.00 34 1015.3
20260503185731 15 340 14.5 24.1 0.00 0.00 0.00 34 1015.5
20260503185230 15 301 19.3 24.1 0.00 0.00 0.00 34 1015.5
20260503184729 14 22 14.5 27.4 0.00 0.00 0.00 34 1015.5
20260503184229 14 298 17.7 27.4 0.00 0.00 0.00 34 1015.7
20260503183729 15 345 17.7 25.7 0.00 0.00 0.00 34 1015.5
20260503182229 14 293 14.5 24.1 0.00 0.00 0.00 35 1015.7
20260503181728 14 312 11.3 24.1 0.00 0.00 0.00 36 1015.7
20260503181229 14 305 16.1 25.7 0.00 0.00 0.00 35 1015.7
20260503180729 14 307 17.7 25.7 0.00 0.00 0.00 35 1015.9
20260503175728 13 312 11.3 24.1 0.00 0.00 0.00 38 1015.9
20260503175228 13 5 16.1 24.1 0.00 0.00 0.00 37 1016.0
20260503174729 13 320 11.3 24.1 0.00 0.00 0.00 38 1016.0
20260503174230 13 307 20.9 29.0 0.00 0.00 0.00 38 1016.0
20260503173729 13 297 17.7 29.0 0.00 0.00 0.00 39 1016.1
20260503173229 13 307 9.7 27.4 0.00 0.00 0.00 39 1016.1
20260503172728 13 9 12.9 29.0 0.00 0.00 0.00 40 1016.2
20260503172229 13 0 8.0 30.6 0.00 0.00 0.00 42 1016.2
20260503170229 12 5 16.1 32.2 0.00 0.00 0.00 38 1016.2
20260503160201 11 348 20.9 30.6 0.00 0.00 0.00 40 1016.7
20260503150202 11 310 19.3 33.8 0.00 0.00 0.00 40 1016.7
20260503140129 10 325 17.7 33.8 0.00 0.00 0.00 44 1016.6
20260503130134 10 335 8.0 27.4 0.00 0.00 0.00 54 1016.4
20260503120105 8 297 17.7 33.8 0.00 0.00 0.00 58 1015.9
20260503110601 8 296 14.5 22.5 0.00 0.00 0.00 63 1015.4
20260503081601 10 314 14.5 24.1 0.00 0.00 0.00 52 1013.1
20260503081101 10 352 12.9 25.7 0.00 0.00 0.00 52 1012.9
20260503080601 10 341 14.5 25.7 0.00 0.00 0.00 52 1013.0
20260503072603 11 331 17.7 27.4 0.00 0.00 0.00 52 1012.5
20260503072102 11 340 12.9 20.9 0.00 0.00 0.00 53 1012.4
20260503071602 11 328 11.3 20.9 0.00 0.00 0.00 53 1012.4
20260503071102 11 342 9.7 22.5 0.00 0.00 0.00 53 1012.3
20260503070603 11 0 17.7 24.1 0.00 0.00 0.00 54 1012.3
20260503055105 11 350 12.9 20.9 0.00 0.00 0.00 56 1011.9
20260503054602 11 306 11.3 24.1 0.00 0.00 0.00 57 1011.9
20260503054101 11 22 9.7 24.1 0.00 0.00 0.00 58 1011.8
20260503053602 11 346 12.9 22.5 0.00 0.00 0.00 59 1011.9
20260503053102 11 337 6.4 14.5 0.00 0.00 0.00 61 1011.9
20260503052601 11 322 9.7 14.5 0.00 0.00 0.00 63 1012.0
20260503052101 10 340 6.4 9.7 0.00 0.00 0.00 64 1011.8